| time (UTC) | temp F | wind direction | speed knots | gust knots | rain 1hr in | rain 24hr in | rain mn in | humidity % | barometer mb |
| 20260506015003 | 50 | 57 | 12.2 | 13.0 | 0.00 | 0.00 | 0.00 | 76 | 1055.2 |
| 20260506014002 | 50 | 39 | 12.2 | 14.8 | 0.00 | 0.00 | 0.00 | 75 | 1054.9 |
| 20260506012503 | 50 | 32 | 7.8 | 12.2 | 0.00 | 0.00 | 0.00 | 75 | 1054.9 |
| 20260506011003 | 50 | 25 | 11.3 | 12.2 | 0.00 | 0.00 | 0.00 | 75 | 1054.9 |
| 20260506005502 | 50 | 12 | 11.3 | 13.9 | 0.00 | 0.00 | 0.00 | 75 | 1054.2 |
| 20260506002503 | 51 | 12 | 7.8 | 13.0 | 0.00 | 0.00 | 0.00 | 74 | 1053.8 |
| 20260506001002 | 51 | 18 | 8.7 | 13.0 | 0.00 | 0.00 | 0.00 | 72 | 1053.8 |
| 20260505234004 | 52 | 46 | 13.9 | 19.1 | 0.00 | 0.00 | 0.00 | 70 | 1053.5 |
| 20260505232503 | 52 | 43 | 8.7 | 15.6 | 0.00 | 0.00 | 0.00 | 70 | 1053.8 |
| 20260505231003 | 52 | 22 | 11.3 | 13.9 | 0.00 | 0.00 | 0.00 | 70 | 1053.5 |
| 20260505225503 | 52 | 9 | 12.2 | 20.0 | 0.00 | 0.00 | 0.00 | 71 | 1053.2 |
| 20260505224502 | 52 | 343 | 8.7 | 15.6 | 0.00 | 0.00 | 0.00 | 71 | 1053.5 |
| 20260505223003 | 53 | 338 | 8.7 | 12.2 | 0.00 | 0.00 | 0.00 | 70 | 1053.5 |
| 20260505221502 | 53 | 23 | 8.7 | 19.1 | 0.00 | 0.00 | 0.00 | 70 | 1053.2 |
| 20260505220003 | 54 | 23 | 7.8 | 15.6 | 0.00 | 0.00 | 0.00 | 69 | 1053.2 |
| 20260505214503 | 54 | 9 | 11.3 | 14.8 | 0.00 | 0.00 | 0.00 | 69 | 1053.2 |
| 20260505213003 | 54 | 46 | 13.0 | 13.9 | 0.00 | 0.00 | 0.00 | 70 | 1053.2 |
| 20260505211503 | 54 | 352 | 19.1 | 19.1 | 0.00 | 0.00 | 0.00 | 70 | 1052.5 |
| 20260505204503 | 55 | 14 | 12.2 | 17.4 | 0.00 | 0.00 | 0.00 | 70 | 1052.5 |
| 20260505201503 | 54 | 58 | 8.7 | 19.1 | 0.00 | 0.00 | 0.00 | 73 | 1052.2 |
| 20260505200004 | 54 | 1 | 19.1 | 19.1 | 0.00 | 0.00 | 0.00 | 75 | 1052.2 |
| 20260505194503 | 54 | 10 | 15.6 | 20.0 | 0.00 | 0.00 | 0.00 | 77 | 1052.2 |
| 20260505193003 | 54 | 11 | 14.8 | 18.2 | 0.00 | 0.00 | 0.00 | 76 | 1052.2 |
| 20260505191502 | 55 | 359 | 14.8 | 19.1 | 0.00 | 0.00 | 0.00 | 76 | 1051.8 |
| 20260505190004 | 56 | 16 | 9.6 | 18.2 | 0.00 | 0.00 | 0.00 | 76 | 1051.8 |
| 20260505184503 | 56 | 11 | 12.2 | 19.1 | 0.00 | 0.00 | 0.00 | 75 | 1051.8 |
| 20260505183003 | 56 | 21 | 13.0 | 19.1 | 0.00 | 0.00 | 0.00 | 76 | 1051.5 |
| 20260505181503 | 56 | 20 | 13.0 | 17.4 | 0.00 | 0.00 | 0.00 | 77 | 1051.1 |
| 20260505180502 | 56 | 7 | 10.4 | 18.2 | 0.00 | 0.00 | 0.00 | 77 | 1051.1 |
| 20260505175002 | 56 | 341 | 15.6 | 18.2 | 0.00 | 0.00 | 0.00 | 78 | 1050.8 |
| 20260505173503 | 57 | 340 | 13.0 | 18.2 | 0.00 | 0.00 | 0.00 | 77 | 1050.8 |
| 20260505172003 | 57 | 21 | 13.0 | 16.5 | 0.00 | 0.00 | 0.00 | 77 | 1050.5 |
| 20260505170503 | 57 | 11 | 11.3 | 19.1 | 0.00 | 0.00 | 0.00 | 79 | 1050.1 |
| 20260505165003 | 58 | 25 | 13.0 | 20.0 | 0.00 | 0.00 | 0.00 | 79 | 1050.1 |
| 20260505163502 | 58 | 7 | 13.0 | 17.4 | 0.00 | 0.00 | 0.00 | 79 | 1049.4 |
| 20260505162003 | 60 | 0 | 12.2 | 18.2 | 0.00 | 0.00 | 0.00 | 78 | 1048.8 |
| 20260505161002 | 61 | 43 | 13.9 | 20.0 | 0.00 | 0.00 | 0.00 | 79 | 1048.1 |
| 20260505152503 | 69 | 14 | 16.5 | 16.5 | 0.00 | 0.00 | 0.00 | 79 | 1046.7 |
| 20260505151003 | 69 | 26 | 9.6 | 13.9 | 0.00 | 0.00 | 0.00 | 80 | 1046.4 |
| 20260505122503 | 71 | 336 | 1.7 | 3.5 | 0.00 | 0.00 | 0.00 | 71 | 1044.4 |
| 20260505121003 | 71 | 23 | 3.5 | 6.1 | 0.00 | 0.00 | 0.00 | 72 | 1044.0 |
| 20260505115503 | 71 | 227 | 5.2 | 7.0 | 0.00 | 0.00 | 0.00 | 71 | 1043.7 |
| 20260505114003 | 71 | 185 | 3.5 | 8.7 | 0.00 | 0.00 | 0.00 | 70 | 1043.0 |
| 20260505112503 | 71 | 202 | 6.1 | 8.7 | 0.00 | 0.00 | 0.00 | 70 | 1042.7 |
| 20260505111003 | 72 | 211 | 6.1 | 11.3 | 0.00 | 0.00 | 0.00 | 70 | 1042.7 |
| 20260505101003 | 72 | 199 | 10.4 | 14.8 | 0.00 | 0.00 | 0.00 | 69 | 1042.3 |
| 20260505095503 | 73 | 203 | 7.0 | 14.8 | 0.00 | 0.00 | 0.00 | 69 | 1042.3 |
| 20260505094003 | 73 | 197 | 13.9 | 15.6 | 0.00 | 0.00 | 0.00 | 68 | 1042.3 |
| 20260505091003 | 73 | 184 | 9.6 | 16.5 | 0.00 | 0.00 | 0.00 | 68 | 1042.3 |
| 20260505085503 | 73 | 205 | 13.0 | 18.2 | 0.00 | 0.00 | 0.00 | 68 | 1042.7 |
| 20260505084003 | 73 | 184 | 12.2 | 17.4 | 0.00 | 0.00 | 0.00 | 68 | 1042.7 |
| 20260505082503 | 73 | 190 | 11.3 | 17.4 | 0.00 | 0.00 | 0.00 | 68 | 1042.7 |
| 20260505081003 | 73 | 206 | 9.6 | 15.6 | 0.00 | 0.00 | 0.00 | 69 | 1042.7 |
| 20260505075503 | 73 | 197 | 8.7 | 14.8 | 0.00 | 0.00 | 0.00 | 69 | 1043.0 |
| 20260505074003 | 73 | 183 | 12.2 | 17.4 | 0.00 | 0.00 | 0.00 | 69 | 1043.0 |
| 20260505072503 | 73 | 211 | 13.0 | 20.0 | 0.00 | 0.00 | 0.00 | 69 | 1043.3 |
| 20260505071003 | 73 | 179 | 15.6 | 16.5 | 0.00 | 0.00 | 0.00 | 69 | 1043.3 |
| 20260505065503 | 73 | 205 | 14.8 | 20.0 | 0.00 | 0.00 | 0.00 | 69 | 1043.7 |
| 20260505064502 | 73 | 197 | 9.6 | 15.6 | 0.00 | 0.00 | 0.00 | 69 | 1043.7 |
| 20260505063003 | 73 | 203 | 12.2 | 21.7 | 0.00 | 0.00 | 0.00 | 68 | 1044.0 |
| 20260505061503 | 73 | 194 | 14.8 | 18.2 | 0.00 | 0.00 | 0.00 | 68 | 1044.0 |
| 20260505060003 | 73 | 183 | 12.2 | 20.0 | 0.00 | 0.00 | 0.00 | 67 | 1044.0 |
| 20260505054503 | 73 | 194 | 16.5 | 16.5 | 0.00 | 0.00 | 0.00 | 67 | 1044.4 |
| 20260505053003 | 73 | 177 | 15.6 | 20.0 | 0.00 | 0.00 | 0.00 | 67 | 1044.4 |
| 20260505051504 | 74 | 196 | 13.0 | 16.5 | 0.00 | 0.00 | 0.00 | 66 | 1044.4 |
| 20260505041003 | 74 | 180 | 13.9 | 17.4 | 0.00 | 0.00 | 0.00 | 65 | 1045.0 |
| 20260505035503 | 75 | 188 | 7.8 | 16.5 | 0.00 | 0.00 | 0.00 | 64 | 1045.0 |
| 20260505032502 | 75 | 204 | 11.3 | 23.5 | 0.00 | 0.00 | 0.00 | 63 | 1044.7 |
| 20260505031003 | 76 | 192 | 12.2 | 17.4 | 0.00 | 0.00 | 0.00 | 63 | 1044.7 |
| 20260505025503 | 76 | 162 | 13.0 | 20.9 | 0.00 | 0.00 | 0.00 | 62 | 1044.4 |
| 20260505024503 | 76 | 167 | 13.0 | 19.1 | 0.00 | 0.00 | 0.00 | 61 | 1044.7 |
| 20260505023003 | 76 | 179 | 12.2 | 14.8 | 0.00 | 0.00 | 0.00 | 61 | 1044.7 |
| 20260505021503 | 77 | 179 | 8.7 | 15.6 | 0.00 | 0.00 | 0.00 | 60 | 1044.4 |